RH
24 20 19 21 21 22 22 24 25 27 28 29 28 26 22 29 38 33 22 19 19 16 14 13 14 18 22 27 19 18 18 20 21 19 19 29 32 31 35 34 32 38 35 29 26 24 26
19 18 19 20 21 22 21 22 23 24 26 28 29 29 25 20 36 37 33 22 18 18 15 14 15 21 25 29 18 21 21 20 23 21 19 32 29 28 29 28 30 26 28 27 24 24 26
20 19 17 18 19 20 21 22 23 22 23 24 25 28 29 22 26 34 33 34 28 18 14 14 18 20 22 16 17 22 21 19 19 18 19 30 28 27 27 27 26 27 31 31 30 28 30
22 19 18 19 18 18 18 18 18 19 20 21 22 23 26 28 31 40 35 31 28 34 20 17 20 23 18 18 17 20 22 20 19 21 25 24 27 29 28 27 26 29 28 32 22 33 29
25 22 23 23 22 22 22 21 21 19 19 18 18 19 21 26 25 30 32 31 29 32 36 22 24 23 23 24 22 23 23 22 22 26 27 28 28 27 29 35 34 34 30 37 34 32 34
39 36 35 33 36 35 34 31 28 25 23 21 20 19 20 22 25 23 28 34 34 35 38 29 33 35 29 28 27 26 26 26 26 28 26 27 29 42 51 38 40 33 40 38 34 30 34
55 51 50 50 49 46 44 41 39 36 31 27 23 21 21 22 21 28 28 43 43 44 42 33 33 34 31 27 26 27 26 28 28 27 32 32 38 43 36 41 26 25 35 34 31 27 32
73 68 63 59 55 51 46 42 40 35 36 38 35 32 29 25 24 32 35 45 40 37 41 34 41 36 30 28 28 28 28 29 33 41 41 48 50 33 32 42 44 42 44 42 39 35 36
80 73 65 57 49 39 36 35 30 27 21 29 33 31 30 38 30 38 39 31 33 40 58 38 46 42 37 31 27 28 29 31 36 45 50 55 40 42 42 43 43 46 47 44 41 39 38
78 58 35 25 18 9 7 7 6 5 6 8 13 15 13 30 38 44 44 41 42 48 36 27 39 36 32 29 32 32 29 29 37 43 47 50 40 40 47 48 47 55 45 41 47 46 59
54 26 12 8 4 3 2 2 2 2 2 2 2 3 2 9 40 42 44 46 45 57 34 34 36 36 32 34 36 38 32 31 39 41 44 44 40 44 51 47 46 47 40 46 45 54 48
29 12 8 7 6 5 4 3 3 3 2 2 3 3 2 9 48 49 50 48 54 28 29 51 38 40 37 36 41 38 35 32 37 39 43 48 37 36 42 38 42 36 38 50 65 59 68
42 38 14 9 5 4 3 3 2 2 2 5 44 53 33 52 63 65 59 56 33 28 35 49 47 42 46 55 44 41 42 53 59 53 56 50 44 41 37 42 37 37 51 69 68 82 73
75 74 37 15 7 6 5 4 3 2 2 26 68 64 68 68 62 61 57 46 17 66 70 56 53 43 58 70 56 54 51 70 83 75 64 70 68 41 40 40 44 51 52 71 72 69 61
99 90 62 23 10 8 6 4 4 3 5 51 58 44 50 67 64 60 61 60 90 93 80 85 66 62 68 79 69 67 84 90 87 90 86 91 75 55 45 39 40 49 60 43 55 53 72
72 73 42 14 12 10 7 4 3 4 16 55 50 47 36 64 65 68 73 92 90 70 81 78 78 84 92 94 84 86 73 87 79 66 86 94 97 67 47 39 40 44 43 58 67 82 82
100 98 88 19 14 10 7 4 3 5 34 58 66 31 36 63 61 56 94 82 74 62 75 88 92 89 81 86 82 78 87 76 59 61 76 82 89 70 63 55 58 64 68 77 63 62 78
99 99 99 35 13 10 8 5 4 3 26 44 29 34 20 52 48 58 59 53 62 64 43 76 77 80 84 82 66 78 86 68 40 48 65 72 84 92 78 60 75 84 92 92 94 82 91
98 99 63 48 18 11 7 4 4 3 9 30 16 18 7 20 40 35 30 59 57 56 52 53 91 72 76 82 55 84 70 53 46 43 59 55 68 78 20 64 59 86 86 86 87 94 95
98 100 98 66 14 8 6 5 3 3 3 12 14 17 21 27 38 36 43 59 58 46 48 55 64 53 59 60 59 78 51 47 44 44 40 49 90 70 57 82 72 82 89 80 94 99 88
100 100 93 57 19 14 10 7 5 3 3 8 18 69 54 51 53 58 55 56 59 57 49 50 60 59 58 66 63 56 55 62 50 47 40 62 73 76 62 51 48 94 92 82 94 98 99
99 100 100 90 57 22 18 11 8 4 5 6 30 48 43 55 46 54 60 65 60 58 54 63 63 59 52 59 56 70 60 66 69 58 60 63 84 66 76 53 58 96 88 79 76 87 98
95 92 100 96 72 46 24 25 20 12 7 20 45 50 37 62 57 57 64 60 64 58 54 56 55 59 61 55 57 59 58 57 56 63 67 71 88 88 90 65 69 91 99 81 86 86 92
95 95 81 100 68 74 52 32 30 41 34 25 34 40 43 66 61 61 58 58 61 66 69 59 56 58 53 58 54 59 68 72 68 65 60 72 86 89 99 88 100 99 95 88 90 94 92
99 96 100 85 52 80 67 59 41 62 50 39 34 38 51 79 62 62 66 68 65 69 73 65 57 62 66 64 78 82 69 89 73 59 65 63 88 97 98 100 88 92 96 98 95 92 100
95 100 99 97 96 92 94 87 56 57 71 58 45 42 50 66 75 69 72 76 83 87 81 70 62 63 60 71 76 100 99 88 94 86 50 45 59 89 96 97 99 91 95 98 88 95 97
100 100 100 100 100 100 94 98 92 53 62 73 70 57 52 71 80 73 75 78 83 85 94 85 79 71 64 80 94 98 95 79 97 93 94 78 84 98 99 100 92 88 87 97 93 92 82
100 100 100 100 100 100 98 99 100 88 68 74 86 75 64 72 77 84 83 75 82 86 97 73 68 72 80 90 95 98 99 98 94 94 100 98 100 100 99 100 95 96 88 91 82 83 83
100 99 100 100 100 100 99 95 100 100 99 90 87 82 78 79 84 80 86 85 86 92 92 88 83 84 83 96 94 96 100 96 94 100 79 94 98 99 96 96 96 78 77 79 97 98 88
Wind_Speed
11 11 10 9 9 9 10 10 11 11 12 12 13 14 12 9 5 7 9 9 8 8 8 8 8 7 6 6 8 4 3 13 12 11 14 15 15 6 3 4 4 5 5 11 18 17 17
10 10 10 10 10 10 10 10 11 11 12 12 13 14 14 12 5 4 6 7 8 9 9 9 8 7 7 4 4 3 6 10 12 12 15 17 8 12 4 4 5 3 6 11 9 20 11
10 10 10 10 11 11 12 12 12 12 12 13 13 13 15 13 6 2 1 4 8 9 10 10 8 8 10 15 4 5 7 8 9 11 13 16 11 7 2 4 5 5 6 8 9 6 8
11 11 11 11 12 12 13 13 13 14 13 13 13 13 14 14 8 3 4 5 6 9 10 10 8 7 8 7 9 11 11 10 10 10 10 9 13 7 3 5 7 4 2 4 3 5 1
13 12 12 12 13 14 14 14 14 15 14 14 13 13 13 13 8 6 5 5 5 7 9 8 7 7 7 6 11 12 11 9 11 11 9 6 5 4 1 3 5 3 4 5 9 4 3
14 14 15 15 15 15 16 16 17 16 16 15 14 13 12 11 10 6 5 3 2 5 8 7 7 4 10 4 5 15 12 7 8 10 6 5 4 2 2 4 6 6 5 5 6 1 2
17 17 17 17 17 18 18 18 18 18 18 17 15 14 12 10 10 6 4 1 3 1 11 9 4 3 4 4 7 12 13 11 7 5 4 2 3 10 15 10 3 2 3 5 4 3 3
18 18 18 18 19 20 20 20 20 20 19 18 17 15 13 10 9 5 3 3 2 3 7 13 20 15 2 6 3 10 16 10 5 5 4 3 8 11 4 7 7 6 6 9 8 5 6
21 20 20 20 20 20 21 21 21 20 20 19 18 16 12 9 7 6 3 2 3 4 1 3 1 2 6 12 4 14 20 8 3 5 6 6 6 3 7 4 6 8 8 5 9 5 4
22 23 22 20 20 20 20 19 19 19 18 19 18 16 13 7 5 7 4 3 3 3 4 2 1 1 3 5 1 6 17 4 2 8 5 6 7 7 3 5 8 6 10 12 7 0 4
22 22 21 19 19 18 19 19 18 18 18 18 18 16 12 8 5 5 4 2 1 1 3 1 1 2 5 3 5 2 13 6 4 4 5 6 2 3 4 8 8 8 6 7 4 4 1
20 19 19 18 18 19 19 19 19 18 18 17 15 12 6 7 8 6 5 1 3 5 4 2 1 1 3 1 2 3 2 4 1 2 3 7 3 3 7 4 6 1 3 5 4 3 3
19 19 19 20 20 20 21 21 20 18 16 12 5 7 4 5 5 7 5 4 4 4 5 5 3 4 3 5 3 1 3 5 3 4 4 5 4 3 2 2 2 3 5 3 3 1 7
21 21 20 21 20 21 22 22 20 18 14 1 5 8 7 1 5 7 8 3 3 3 3 3 3 3 5 8 4 4 3 3 9 5 2 2 6 0 3 4 3 5 7 5 4 4 4
20 21 21 20 21 22 23 22 20 18 11 7 7 9 10 3 3 7 4 4 2 3 4 6 4 5 3 5 4 5 5 3 6 7 2 5 5 5 3 2 5 1 4 4 5 4 1
21 23 21 20 21 24 24 23 21 19 4 11 6 3 18 6 6 8 5 4 3 5 5 3 2 4 3 6 4 6 2 3 2 7 2 3 7 5 6 4 1 4 2 3 1 4 8
24 24 24 21 21 23 24 25 23 18 3 8 3 1 12 5 5 8 4 3 4 10 9 6 3 4 4 4 4 3 3 5 5 5 8 4 3 3 7 3 4 6 4 5 3 5 9
20 23 25 22 21 21 24 24 23 19 3 4 1 3 14 5 7 4 3 3 5 8 15 7 5 6 5 6 4 3 3 4 11 4 3 2 2 5 6 5 13 7 6 5 2 5 4
25 26 24 22 21 22 22 23 22 22 12 3 4 3 15 5 4 2 3 5 8 7 6 6 7 6 5 3 3 5 5 7 16 5 2 4 3 5 6 3 8 6 6 4 4 5 3
24 26 27 27 23 23 23 24 22 19 14 4 3 3 12 17 7 5 4 3 3 12 5 8 4 7 6 5 5 2 3 2 16 7 12 7 3 6 5 2 0 3 5 4 1 2 5
24 26 27 28 27 26 25 25 24 18 15 3 6 3 3 3 7 6 4 3 3 5 7 11 4 5 2 2 3 2 2 6 9 10 4 3 3 2 3 8 3 3 3 5 3 2 5
21 25 26 28 29 27 27 26 26 21 13 15 5 4 8 5 3 6 6 3 2 3 2 3 4 2 2 3 4 5 2 1 5 5 3 5 3 4 5 2 4 6 6 6 6 2 3
24 23 25 26 28 29 27 28 28 27 22 12 11 10 4 8 3 3 2 2 2 0 3 5 1 1 2 3 6 17 19 17 12 4 2 3 2 2 4 4 6 1 3 4 3 3 3
21 23 23 25 25 26 27 25 26 26 27 20 13 6 4 2 3 3 2 3 3 2 1 6 5 1 2 18 21 8 4 9 9 11 13 3 1 2 3 1 2 1 3 3 5 3 4
21 20 23 22 22 23 23 24 21 22 20 19 17 6 4 3 6 4 5 3 4 4 4 2 2 9 11 7 3 4 1 3 2 5 5 9 2 1 2 1 3 3 2 2 3 3 1
19 21 21 21 22 21 21 22 20 16 17 14 16 12 6 9 0 5 3 3 2 2 5 2 8 4 7 2 1 1 2 2 2 2 6 5 5 2 3 2 4 3 1 5 5 3 4
20 20 20 19 19 20 21 20 19 16 12 12 13 13 6 6 5 2 2 2 2 1 0 3 7 5 7 2 0 0 0 2 1 2 5 4 4 3 2 1 4 4 7 4 3 2 13
21 22 22 22 19 18 20 18 18 16 8 6 7 10 8 4 6 5 3 2 2 1 2 4 2 2 3 2 1 1 2 1 4 2 1 2 2 1 2 3 4 5 2 3 3 7 17
20 21 21 23 22 20 20 19 16 16 10 4 4 4 7 4 5 2 2 2 1 1 0 2 1 2 1 1 0 2 2 3 3 1 4 2 0 1 3 2 1 6 3 7 3 17 24
Wind_Direction
352 353 350 353 351 353 356 359 2 3 7 9 9 9 5 349 295 246 235 232 231 230 229 227 227 229 249 254 258 251 165 181 187 189 192 182 177 179 190 215 189 222 258 260 263 276 273
355 352 347 347 345 346 348 350 353 354 357 0 3 4 4 359 330 275 239 233 233 228 224 220 221 233 239 252 255 230 203 199 202 200 197 198 203 214 251 237 182 254 256 272 287 265 256
351 346 344 341 341 341 343 343 344 346 347 349 354 358 360 3 351 287 289 251 237 230 224 219 220 231 247 252 232 213 198 208 210 207 206 209 211 193 207 287 296 281 306 312 245 244 232
347 347 345 340 336 335 334 335 335 336 338 340 344 348 352 358 355 328 283 289 250 231 225 222 224 236 253 251 230 214 199 197 200 200 207 213 220 250 237 304 336 342 25 337 282 143 317
351 348 345 341 337 334 332 330 328 326 327 328 332 335 341 344 348 333 312 292 256 229 220 217 224 226 264 247 216 197 198 205 192 191 197 198 186 216 166 85 349 344 258 228 314 195 127
350 345 342 340 337 333 329 327 323 321 319 319 320 321 325 330 335 329 332 323 226 200 196 203 216 242 237 237 196 195 192 200 180 185 169 182 168 88 55 117 235 211 226 245 248 255 162
349 346 343 339 336 330 326 323 321 319 315 312 311 311 311 315 318 291 305 193 140 194 202 202 207 223 103 149 159 184 186 177 149 155 153 161 131 214 208 202 212 160 213 254 254 252 277
350 345 340 336 331 327 321 318 316 314 312 310 309 309 307 306 305 269 260 225 223 265 292 252 247 236 101 167 129 176 185 174 166 181 133 53 236 238 187 209 230 261 282 276 289 248 182
342 338 335 332 328 324 319 316 315 313 312 308 308 307 304 297 287 234 224 232 292 306 254 306 130 205 227 210 210 184 183 191 145 168 196 182 229 81 178 186 205 233 230 236 240 315 256
337 335 334 332 329 328 326 323 322 321 315 313 308 305 302 284 248 222 225 255 310 331 58 290 110 39 150 178 175 183 195 173 192 209 200 236 262 256 167 229 186 262 207 236 247 136 256
335 335 338 337 335 334 331 330 327 323 319 317 314 307 294 249 217 199 190 236 325 81 9 8 40 117 148 149 140 41 187 200 214 199 129 249 277 186 187 222 158 238 178 207 214 195 320
340 343 343 342 340 338 335 332 328 325 322 324 322 314 283 219 210 207 192 202 126 51 257 10 43 62 106 78 61 102 130 199 344 271 212 243 284 266 213 209 177 163 124 51 56 101 255
354 351 348 345 342 341 340 338 333 326 325 331 17 47 97 167 181 187 184 151 52 148 350 351 350 14 97 353 58 108 128 36 24 357 350 324 246 283 178 245 234 123 76 307 307 115 233
3 356 353 351 348 349 348 346 342 333 329 295 105 75 61 116 181 180 160 66 191 64 349 341 1 332 86 359 50 7 79 103 30 7 292 343 328 312 332 190 220 188 172 183 247 228 269
4 358 356 355 356 353 353 353 352 341 335 163 126 71 36 52 142 161 148 65 56 11 301 335 330 58 42 357 29 31 57 65 35 8 38 356 271 319 301 266 152 140 171 224 257 242 290
4 4 3 3 1 356 355 357 1 354 5 162 144 341 21 49 112 137 78 101 90 8 331 321 37 23 55 353 46 22 61 1 43 10 300 41 291 272 314 345 49 177 236 276 346 275 255
14 11 6 4 6 2 360 359 5 7 75 175 238 81 12 80 92 69 90 75 101 31 35 25 58 38 53 18 354 322 49 50 26 358 44 14 223 292 11 312 18 347 353 355 290 239 262
9 8 14 10 10 10 6 4 5 15 80 153 104 56 12 63 53 36 58 32 29 3 23 29 67 57 41 12 357 343 42 64 5 18 32 305 262 280 226 325 73 58 44 28 329 307 284
10 14 13 18 16 15 11 8 6 10 29 104 72 51 23 122 99 70 51 70 55 20 24 22 33 47 12 30 10 12 24 118 27 43 32 332 315 327 331 70 45 39 49 24 285 250 255
16 17 15 14 21 17 15 12 8 11 10 50 88 52 34 55 69 103 107 48 78 37 57 66 72 59 36 15 15 312 331 28 351 341 317 257 228 186 211 170 213 329 35 357 297 241 316
18 18 18 19 21 22 16 17 15 11 8 41 59 75 46 23 28 70 81 63 47 18 23 39 81 81 81 345 318 299 30 353 323 323 15 71 210 294 300 316 333 97 25 34 97 218 172
19 18 18 20 20 23 22 21 24 25 33 72 75 97 79 62 70 56 31 48 71 337 15 62 71 355 169 202 210 273 332 157 243 331 53 2 294 341 295 285 135 104 29 111 63 11 115
17 15 20 19 20 19 23 25 29 34 45 62 69 82 91 13 45 64 35 109 64 340 50 98 85 321 268 269 294 289 277 250 240 239 1 279 196 75 272 126 134 325 7 46 129 70 312
14 16 16 18 19 21 20 23 29 33 40 48 51 65 80 54 67 79 106 104 63 43 275 331 43 73 299 309 305 300 296 253 252 257 212 233 151 211 245 270 247 120 26 54 98 75 25
13 16 16 13 17 16 18 21 24 29 35 36 41 54 68 93 108 95 84 69 62 32 22 304 292 328 316 331 354 7 260 169 76 37 69 205 213 286 127 161 319 338 323 50 98 273 311
12 14 12 12 9 10 14 14 18 24 29 36 43 49 80 118 118 110 106 62 90 358 355 289 333 353 4 13 325 130 229 6 148 152 71 83 36 130 82 152 238 235 269 324 144 292 336
9 10 8 8 9 7 7 10 9 16 23 28 34 40 65 97 131 108 108 134 80 63 226 313 340 1 14 7 325 182 66 323 83 46 341 357 7 73 15 140 296 250 328 130 89 267 337
10 6 0 0 1 5 359 2 2 2 19 24 30 23 38 96 130 122 115 135 137 139 116 333 14 3 353 41 83 304 100 93 86 110 62 89 62 360 61 53 309 351 15 177 146 14 354
5 359 360 356 2 1 352 354 357 350 6 19 22 10 27 87 134 147 147 148 118 84 337 318 303 270 295 359 356 93 39 38 148 78 32 14 158 267 182 237 186 18 292 148 337 352 346